Погода в Аксе

Погода в Аксе : погода сейчас, прогноз погоды и архив. Всё, что Вы хотите узнать о погоде в Аксе!

Хотите узнать прогноз погоды в Аксе? Тогда Вам сюда: Погода в Аксе

Поиск расширенной информации на нашем сайте:

Другие новости

Новости СМИ2

Главная страница сайта

Новости сайта

03.07.2017

Напоминаем, что на нашем специализированном сайте Метеоцентр.Азия вы можете получить высокодетализированные автоматические прогнозы погоды по пунктам России, СНГ и мира в авиационном формате (включающие направление и скорость ветра, видимость, явления погоды, количество и форму облачности, нижнюю и верхнюю границу облачности).

Рекомендуем: очень хочется рисовать в Manga Studio.

Погода в Аксе - сегодня

Время (UTC), дата Ветер
(°,м/с) 
Видим.   Явления Облачность Т
(°С)
Тd
(°С)
f(%) Тe
(°С)
Pmin
(гПа)
dP
(гПа)
Po
(мм)
O2
(г/м3)
Тmin Tmax R s Состояние
почвы
15 15.06.18 080 (В) н/о    1/1 1000 м 
[Sc diur, vesp]
+10.2 +9.3 94 +12  1007.9  0.8  693  267           
18 15.06.18 120 (ЮВ) н/о    ясно 
+9.2 +8.7 97 +10  1009.1  0.8  694  269           
21 15.06.18 220 (ЮЗ) 0200 м  туман  ?/?  
+9.4 +8.9 97 +10  1010.2  1.1  694  269           
00 16.06.18 220 (ЮЗ) 0200 м  туман  ясно 
+10.4 +10 97 +13  1010.7  0.7  695  268  +8.6        влажная 
03 16.06.18 210 (ЮЗ) 20000 м  {туман}  3/3 1000 м 
[Cu med, cong]
+19 +11.9 63 +26  1007.5  -0.6  695  259           
06 16.06.18 210 (ЮЗ) 20000 м  {туман}  8/6 1000 м кучево-дожд., верхняя 
[Cb cap|Ci sp]
+23.1 +10.1 44 +26  1004.4  -1.8  693  256           
09 16.06.18 220 (ЮЗ) 20000 м  гроза, ливневой дождь  10/8 1000 м кучево-дожд., средняя, верхняя 
[Cb calv|Ac lent|Ci sp]
+17 +12.8 76 +24  1006.1  693  260           
12 16.06.18 тихо ()   20000 м  {гроза}  9/9 1000 м кучево-дожд. 
[Cb cap]
+17 +13.5 80 +25  1005.6  -0.5  693  260    +23.2     
15 16.06.18 140 (ЮВ) н/о  {гроза}  5/5 1000 м 
[Sc]
+13.2 +11.5 89 +19  1008.1  1.2  694  264           
18 16.06.18 тихо ()   н/о    3/3 1000 м 
[Sc]
+9.4 +9.2 99 +11  1009.4  694  268           
21 16.06.18 240 (ЮЗ) 20000 м    3/3 1000 м 
[Sc]
+8.4 +8.4 100 +10  1009.5  -0.2  694  269           
00 17.06.18 тихо ()   20000 м    10/0 средняя 
[Ac As]
+13.6 +11.7 88 +19  1008  0.2  694  264  +8.4        влажная 
03 17.06.18 170 (Ю) 20000 м    10/3 1000 м средняя, верхняя 
[Cu hum|As trans|Ci fib]
+18.6 +11.9 65 +26  1005.2  -1.2  693  259           
06 17.06.18 210 (ЮЗ) 20000 м    10/6 1000 м кучево-дожд., верхняя 
[Cb cap|Ci fib]
+19.6 +12.3 63 +26  1003.2  -1.5  692  258           
09 17.06.18 210 (ЮЗ) 20000 м    9/8 1000 м кучево-дожд., средняя, верхняя 
[Cb cap|As trans|Ci fib]
+18.6 +11.3 62 +25  1003  -0.6  691  259           
15 17.06.18 210 (ЮЗ) н/о    6/6 1000 м 
[Sc diur, vesp]
+13.4 +9.3 76 +17  1005.8  1.1  692  264           
18 17.06.18 030 (СВ) н/о    8/8 1000 м 
[Sc diur, vesp]
+9.8 +7.5 86 +10  1007.2  0.3  692  268           
21 17.06.18 110 (В) 20000 м    1/1 1000 м 
[Sc]
+6.8 +6.1 95 +7  1008.5  0.4  693  271           
00 18.06.18 280 (З) 20000 м    3/3 1000 м 
[Sc]
+15.1 +7.9 62 +16  1007.4  1.2  693  263  +6.3        влажная 
03 18.06.18 310 (СЗ) 20000 м    4/3 1000 м средняя 
[Sc|Ac lent]
+20.8 +7.4 42 +21  1004.7  -0.8  693  258           
12 18.06.18 010 (С) 5{17}  20000 м  {гроза}  9/8 1000 м кучево-дожд., средняя, верхняя 
[Cb cap|Ac lent|Ci sp]
+17.9 +5.8 45 +18  1005.8  1.9  693  261    +24       
15 18.06.18 120 (ЮВ) н/о    5/0 средняя, верхняя 
[Ac lent|Ci fib]
+12.3 +6.7 69 +13  1009  1.4  694  266           
18 18.06.18 090 (В) н/о    3/0 средняя, верхняя 
[Ac lent|Ci fib]
+10 +6.7 80 +10  1010.3  0.6  695  269           
21 18.06.18 тихо ()   20000 м    ясно 
+6.7 +5.4 91 +7  1012  0.6  695  272           
00 19.06.18 210 (ЮЗ) 20000 м    3/0 верхняя 
[Ci fib]
+16.9 +9.3 61 +20  1009.2  0.5  695  262  +6.5        сухая 
Время (UTC), дата Ветер
(°,м/с) 
Видим.   Явления Облачность Т
(°С)
Тd
(°С)
f(%) Тe
(°С)
Pmin
(гПа)
dP
(гПа)
Po
(мм)
O2
(г/м3)
Тmin Tmax R s Состояние
почвы

Для получения пояснительной информации подведите курсор к названию столбца.

ПОГОДА в Аксе - архив

Всё, что Вы хотите узнать о погоде в Аксе - удобно и подробно!

Выберите нужную дату (начиная с 1 января 2015* года) и нажмите кнопку "Найти".
Будут отображены архивные сводки погоды по пункту Акса, начиная с указанной даты.


Отображать данные в формате CSV (для использования в таблицах Excel)


Внимание! Наш архив погоды предназначен исключительно для личного некоммерческого использования в познавательных целях. Если Вам необходимы официальные справки о состоянии погоды (для производственных, юридических, коммерческих и т.п. целей), обращайтесь в органы Росгидромета.

*Примечание: данная дата относится к архиву по метеостанциям СССР (Россия, СНГ, Балтия).
Архив по метеостанциям Зарубежной Европы и Азии (кроме Китая) хранится 10 дней, по другим регионам земного шара (Китай, Африка, Америка, Австралия, Океания) - 1 день.

Акса - район местоположения метеостанции


Название, широта, долгота, высота метеостанции:
Акса 50.3°ш. 113.3°д. 732 м над ур. моря [Российская Федерация]

Дополнительная информация

В oтличие oт бoльшинства пoгoдных сайтoв мы публикуем пoдрoбную метеoинфoрмацию в детальнoм прoфессиoнальнoм фoрмате.

Характеристики температуры и влажнoсти вoздуха измеряются на высoте 2 м в тени вдали oт зданий и деревьев.
Скoрoсть ветра измеряется на высoте 10 м (на урoвне рoста челoвека скoрoсть ветра ниже в 1.5-2 раза). Если метеoстанция нахoдится в гoрoде или в лесу, тo скoрoсть ветра занижена на 2-4 м/с пo сравнению с oткрытым местoм. Скoрoсть ветра над акватoриями крупных рек и oзёр, а также на вершинах хoлмoв на 2-5 м/с выше, чем в oбычных услoвиях.
Атмoсфернoе давление в разных тoчках местнoсти мoжет значительнo oтличаться oт давления на метеoстанции, в зависимoсти oт услoвий рельефа (при пoдъёме на 10 м давление пoнижается примернo на 1 мм рт.ст.).